logo
App data

BitMaster

BitMaster is a dynamic and colorful twin-stick shooter which design was inspired by such games as Geometry Wars, Crimson Land and Satellite Reign. Game powered by Unreal Engine 4!
Store | Hub | SteamDB
Developer: Vladimir Shlapak Publisher: Sometimes You
Genre: Action, Indie
Languages: English, Russian
Tags: Action (26), Indie (25), Twin Stick Shooter (7)
Category: Single-player, Full controller support, Steam Trading Cards
Release date: Oct 12, 2016
Price: $2.99
Score rank: 33% Userscore: 70% Old userscore: 71%
Owners: 200,000 .. 500,000
Followers: 511
Peak concurrent players yesterday: 2
Playtime in the last 2 weeks: 00:01 (average) 00:01 (median)
Playtime total: 03:54 (average) 03:34 (median)

Steam Spy is still in beta, so expect major bugs.

Owners data:

Access restricted.

This feature is only available to users with special access rights. Sorry.

If you want to proceed, you need to register or log in first and then back Steam Spy on Patreon. Look for Indie or Pro pledge.

Don't forget to use the same email as on Steam Spy!

Audience in 2 weeks:

Access restricted.

This feature is only available to users with special access rights. Sorry.

If you want to proceed, you need to register or log in first and then back Steam Spy on Patreon. Look for Indie or Pro pledge.

Don't forget to use the same email as on Steam Spy!

Peak daily concurrent players:

CCU data courtesy of SteamDB. Used with permission.

Hourly concurrent players:

Daily Twitch stats:

Hourly Twitch stats:

YouTube:

The views data is based on top 50 videos uploaded last week. Actual number of views might be more than the number shown.

The displayed number of videos uploaded yesterday is limited to 50, so if there were more videos uploaded, the number will still show 50.

If the game has commonly used word as its name (like "FEAR" or "Volume") its number of Youtube views might be wrong.

Games similar to this one:

# Game Release date
Price
Score rank
(Userscore / Metascore)
Owners
Players
Playtime (Median)
1 Little Big Adventure 2 Oct 20, 2015 $3.9999% (98%)20,000 .. 50,0002.44%00:01 (00:00)
2 Seven Kingdoms: Ancient Adversaries Mar 22, 2016 $2.39N/A (N/A)0 .. 20,0000%00:00 (00:00)
3 Dungeon Warfare Nov 4, 2015 $9.9997% (97%)50,000 .. 100,0000%00:00 (00:00)
4 Militia Dec 2, 2015 $5.9995% (96%)0 .. 20,0000%00:00 (00:00)
5 Imperium Galactica Jan 19, 2017 $4.99N/A (N/A)0 .. 20,0000%00:00 (00:00)
6 Chicken Invaders 2 Mar 4, 2016 $3.9995% (96%)0 .. 20,0000%00:00 (00:00)
7 Defend The Highlands Nov 6, 2015 $9.99N/A (N/A)100,000 .. 200,0000%00:00 (00:00)
8 Voodoo Vince: Remastered Apr 17, 2017 $14.9995% (96%/63%)0 .. 20,0000%00:00 (00:00)
9 Flywrench Aug 24, 2015 $6.9992% (95%)0 .. 20,0000%00:00 (00:00)
10 Hegemony Gold: Wars of Ancient Greece Mar 30, 2012 $14.9992% (95%)20,000 .. 50,0000%00:00 (00:00)
11 Supercharged Robot VULKAISER Jun 4, 2015 $4.9992% (95%)20,000 .. 50,0000%00:00 (00:00)
12 ESCHATOS Sep 18, 2015 $14.9989% (94%)0 .. 20,0000%00:00 (00:00)
13 Stick it to The Man! Dec 13, 2013 $7.9989% (94%/83%)20,000 .. 50,0000%00:00 (00:00)
14 Star Trek: Judgment Rites May 8, 2015 $9.99N/A (N/A)0 .. 20,0000%00:00 (00:00)
15 PixelJunk Shooter Nov 11, 2013 $8.9989% (94%/73%)100,000 .. 200,0000.35%00:25 (00:08)
16 Audio Arena Jul 25, 2016 $6.99N/A (N/A)0 .. 20,0000%00:00 (00:00)
17 Templar Battleforce Sep 21, 2015 $9.9989% (94%)20,000 .. 50,0000%00:00 (00:00)
18 Outcast 1.1 Dec 18, 2014 $5.9989% (94%)50,000 .. 100,0000%00:00 (00:00)
19 Neon Chrome Apr 28, 2016 $14.9989% (94%/74%)200,000 .. 500,0000%00:00 (00:00)
20 Gold Rush! Classic Jul 25, 2014 $2.99N/A (N/A)200,000 .. 500,0000.14%03:29 (01:09)
21 Adventure in the Tower of Flight Dec 23, 2015 $4.99N/A (N/A)0 .. 20,0000%00:00 (00:00)
22 Majesty Gold HD Mar 23, 2001 $9.9989% (94%)100,000 .. 200,0000%00:00 (00:00)
23 Run or Die Dec 11, 2014 $4.9986% (93%)0 .. 20,0002.17%00:21 (00:07)
24 Pharaoh Rebirth+ Mar 17, 2016 $9.9986% (93%)0 .. 20,0000%00:00 (00:00)
25 Handsome Mr. Frog Aug 8, 2016 $0.9986% (93%)0 .. 20,0000%00:00 (00:00)
26 Eufloria HD Oct 14, 2014 $14.9986% (93%)100,000 .. 200,0000%00:00 (00:00)
27 Anarcute Jul 12, 2016 $14.9986% (93%/79%)0 .. 20,0003.7%02:09 (00:43)
28 Kalimba Apr 22, 2015 $9.9986% (93%/81%)0 .. 20,0000%00:00 (00:00)
29 Major Mayhem Feb 24, 2014 $4.99N/A (N/A)20,000 .. 50,0000%00:00 (00:00)
30 Wars and Warriors: Joan of Arc Sep 3, 2015 $1.7486% (93%/60%)0 .. 20,0007.69%00:05 (00:01)
31 Kick Ass Commandos Nov 17, 2016 $9.9986% (93%)20,000 .. 50,0001.54%01:05 (00:21)
32 Shmups Skill Test シューティング技能検定 Jun 9, 2016 $4.99N/A (N/A)0 .. 20,0000%00:00 (00:00)
33 Bleed Jul 3, 2013 $4.9983% (92%)100,000 .. 200,0000.59%00:01 (00:00)
34 Tallowmere Mar 3, 2015 $3.9983% (92%)20,000 .. 50,0004.08%00:19 (00:09)
35 Counter Spell Oct 5, 2015 $9.9983% (92%)0 .. 20,0000%00:00 (00:00)
36 Khet 2.0 Oct 1, 2014 $9.9983% (92%)50,000 .. 100,0000%00:00 (00:00)
37 Momodora III Jul 1, 2014 $1.9983% (92%)50,000 .. 100,0000%00:00 (00:00)
38 Ittle Dew Jul 23, 2013 $9.9983% (92%/67%)100,000 .. 200,0000%00:00 (00:00)
39 Knightmare Tower Jun 16, 2014 $3.9983% (92%)0 .. 20,0000%00:00 (00:00)
40 Great Big War Game Aug 28, 2012 $6.99N/A (N/A)0 .. 20,0000%00:00 (00:00)
41 Miracle Fly Oct 26, 2015 $7.99N/A (N/A)20,000 .. 50,0000%00:00 (00:00)
42 Mad Bullets Jun 10, 2016 $2.9983% (92%)0 .. 20,0000%00:00 (00:00)
43 Death Ray Manta SE Sep 17, 2015 $1.9983% (92%)20,000 .. 50,0000%00:00 (00:00)
44 Warrior Kings: Battles May 6, 2014 $9.9983% (92%/64%)20,000 .. 50,0000%00:00 (00:00)
45 Super Trench Attack! Jul 24, 2014 $0.9983% (92%)50,000 .. 100,0000.54%00:01 (00:00)
46 The Juicer Sep 11, 2015 $0.9983% (92%)20,000 .. 50,0000%00:00 (00:00)
47 Ys VI: The Ark of Napishtim Apr 28, 2015 $19.9983% (92%/76%)50,000 .. 100,0000%00:00 (00:00)
48 Flashpoint Campaigns: Red Storm Player's Edition Oct 9, 2013 $49.9979% (91%)0 .. 20,0000%00:00 (00:00)
49 Near Death Aug 2, 2016 $14.9979% (91%/70%)20,000 .. 50,0000%00:00 (00:00)
50 Below Kryll Sep 7, 2015 $0.9979% (91%)0 .. 20,0000%00:00 (00:00)
51 Angry Video Game Nerd II: ASSimilation Mar 29, 2016 $9.9979% (91%)20,000 .. 50,0000%00:00 (00:00)
52 Skulls of the Shogun Jul 29, 2013 $9.9979% (91%/72%)100,000 .. 200,0000%00:00 (00:00)
53 Clash of Puppets Dec 16, 2014 $4.99N/A (N/A)0 .. 20,0000%00:00 (00:00)
54 Super Cyborg Jul 8, 2015 $4.9979% (91%)20,000 .. 50,0000.91%00:02 (00:00)
55 Kohan II: Kings of War Sep 21, 2004 $9.9979% (91%/81%)20,000 .. 50,0000%00:00 (00:00)
56 Codename: Panzers, Phase Two Feb 18, 2016 $14.9979% (91%/80%)0 .. 20,0000%00:00 (00:00)
57 Dandy: Or a Brief Glimpse Into the Life of the Candy Alchemist Aug 4, 2015 $9.99N/A (N/A)0 .. 20,0000%00:00 (00:00)
58 Apocalypse: Party's Over May 30, 2016 N/A79% (91%)0 .. 20,0005.26%00:01 (00:00)
59 Blue Estate The Game Apr 8, 2015 $12.9979% (91%/59%)50,000 .. 100,0000%00:00 (00:00)
60 Valley Aug 24, 2016 $19.9979% (91%)200,000 .. 500,00011.44%01:11 (00:45)
61 Superstatic Sep 15, 2015 $4.99N/A (N/A)0 .. 20,0000%00:00 (00:00)
62 Swords and Soldiers HD Dec 2, 2010 $9.9976% (90%)100,000 .. 200,0000.14%00:34 (00:33)
63 Amaranthine Apr 6, 2016 $2.99N/A (N/A)0 .. 20,0000%00:00 (00:00)
64 Wild Guns Reloaded Jul 11, 2017 $14.9976% (90%)0 .. 20,0000%00:00 (00:00)
65 MoonBase Commander Aug 13, 2002 $5.9976% (90%/77%)20,000 .. 50,0000%00:00 (00:00)
66 Ace of Seafood Apr 8, 2016 $11.9976% (90%)0 .. 20,0000%00:00 (00:00)
67 Silent Storm Gold Edition Sep 9, 2004 $9.9976% (90%/83%)200,000 .. 500,0001.72%00:24 (00:15)
68 Battle Academy 2: Eastern Front Sep 12, 2014 $39.9976% (90%/78%)0 .. 20,0000%00:00 (00:00)
69 Lethe - Episode One Aug 1, 2016 $14.9976% (90%)0 .. 20,0000%00:00 (00:00)
70 Sneaky Sneaky Nov 12, 2014 $4.9976% (90%/63%)0 .. 20,0000%00:00 (00:00)
71 Headlander Jul 25, 2016 $19.9976% (90%/74%)50,000 .. 100,0000%00:00 (00:00)
72 Zombo Buster Rising Oct 2, 2016 $1.9976% (90%)0 .. 20,0000%00:00 (00:00)
73 Warhammer 40,000: Dawn of War – Winter Assault Jan 1, 2006 $12.9976% (90%)500,000 .. 1,000,0000.13%05:28 (01:49)
74 Planet of the Eyes Aug 24, 2015 $9.9976% (90%/66%)50,000 .. 100,0000%00:00 (00:00)
75 RIVE: Wreck, Hack, Die, Retry! Sep 13, 2016 $14.9973% (89%)200,000 .. 500,0000%00:00 (00:00)
76 Armed with Wings: Rearmed Jun 1, 2017 $9.9973% (89%)20,000 .. 50,0000%00:00 (00:00)
77 Death's Hangover Jan 20, 2017 $4.9973% (89%)50,000 .. 100,0000%00:00 (00:00)
78 Earth Defense Force: Insect Armageddon Dec 14, 2011 $9.9973% (89%/69%)50,000 .. 100,0000%00:00 (00:00)
79 CastleStorm Jul 29, 2013 $9.9973% (89%/73%)100,000 .. 200,0000.47%03:01 (01:00)
80 Explosionade Sep 23, 2015 $3.99N/A (N/A)0 .. 20,0000%00:00 (00:00)
81 System Crash Aug 1, 2016 $14.9973% (89%)0 .. 20,0000%00:00 (00:00)
82 Tcheco in the Castle of Lucio Jun 22, 2015 $0.9973% (89%)50,000 .. 100,0000.48%00:01 (00:00)
83 Reverse Crawl Sep 24, 2015 $5.9973% (89%)20,000 .. 50,0000%00:00 (00:00)
84 Battlepillars Gold Edition Apr 28, 2014 $4.9973% (89%)20,000 .. 50,0000%00:00 (00:00)
85 Earn to Die 2 May 5, 2016 $4.9970% (88%)20,000 .. 50,0000%00:00 (00:00)
86 Atom Zombie Smasher Mar 14, 2011 $9.9970% (88%/75%)200,000 .. 500,0000.26%02:45 (00:55)
87 Darknet Jun 8, 2017 $14.99N/A (N/A)0 .. 20,0006.25%01:12 (00:24)
88 TRON 2.0 Oct 10, 2014 $9.9970% (88%/84%)50,000 .. 100,0004.08%02:00 (01:19)
89 Fort Meow Jun 24, 2015 $7.9970% (88%)0 .. 20,0000%00:00 (00:00)
90 Mr. Shifty Apr 13, 2017 $14.9970% (88%)50,000 .. 100,0000.49%01:38 (01:05)
91 Kohan: Ahriman's Gift Aug 24, 2011 $9.99N/A (N/A/79%)0 .. 20,0000%00:00 (00:00)
92 Weird Hero Nov 18, 2016 $1.3970% (88%)0 .. 20,0000%00:00 (00:00)
93 Viking Squad Oct 4, 2016 $14.9970% (88%)0 .. 20,0000%00:00 (00:00)
94 Anodyne Mar 22, 2013 $9.9970% (88%/75%)100,000 .. 200,0000%00:00 (00:00)
95 The Fall May 30, 2014 $9.9970% (88%/76%)200,000 .. 500,0000.26%01:13 (00:24)
96 Greed Corp Dec 10, 2010 $9.9970% (88%/76%)200,000 .. 500,0000%00:00 (00:00)
97 The Haunted: Hells Reach Oct 24, 2011 $8.9967% (87%/51%)50,000 .. 100,0000%00:00 (00:00)
98 Shadow Blade: Reload Aug 10, 2015 $14.9967% (87%/70%)20,000 .. 50,0000%00:00 (00:00)
99 Avoid - Sensory Overload Apr 8, 2014 $4.9967% (87%)20,000 .. 50,0006.9%01:56 (01:17)
100 Spider: Rite of the Shrouded Moon Aug 6, 2015 $9.99N/A (N/A)20,000 .. 50,0000%00:00 (00:00)
101 Spooky Cats Jun 4, 2015 $2.9967% (87%)20,000 .. 50,0000%00:00 (00:00)
102 Syrian Warfare Feb 21, 2017 $13.9967% (87%)100,000 .. 200,0002.78%00:30 (00:10)
103 Spectromancer Oct 15, 2008 $9.9967% (87%)20,000 .. 50,0000%00:00 (00:00)
104 Blacksea Odyssey Jun 1, 2016 $9.9967% (87%/74%)20,000 .. 50,0000%00:00 (00:00)
105 Graviteam Tactics: Mius-Front Mar 4, 2016 $34.9967% (87%)0 .. 20,0000%00:00 (00:00)
106 Civilization IV: Warlords Apr 6, 2007 $4.9967% (87%/84%)1,000,000 .. 2,000,0000%00:00 (00:00)
107 Command: Northern Inferno Oct 22, 2015 $19.99N/A (N/A)0 .. 20,0000%00:00 (00:00)
108 Rush for Berlin Gold Oct 29, 2009 $4.9967% (87%/76%)20,000 .. 50,0000%00:00 (00:00)
109 Time Rifters Oct 21, 2014 $9.9967% (87%)0 .. 20,0004.35%07:02 (02:20)
110 Lethal VR Nov 8, 2016 $14.9967% (87%/66%)0 .. 20,0000%00:00 (00:00)
111 Sang-Froid - Tales of Werewolves Apr 5, 2013 Free67% (87%/79%)200,000 .. 500,0000.18%00:30 (00:10)
112 Supreme Commander Feb 20, 2007 $12.9964% (86%/86%)500,000 .. 1,000,0000%00:00 (00:00)
113 Executive Assault Jul 17, 2015 $12.9964% (86%)50,000 .. 100,0002.04%13:31 (04:30)
114 Bullet Sorrow VR Apr 17, 2017 $19.9964% (86%)0 .. 20,0000%00:00 (00:00)
115 NOBUNAGA'S AMBITION: Souzou (Traditional Chinese version) Aug 2014 $24.9964% (86%)20,000 .. 50,0000%00:00 (00:00)
116 N2O: Nitrous Oxide Jun 29, 2015 $4.99N/A (N/A)0 .. 20,0000%00:00 (00:00)
117 Slash or Die Jun 3, 2016 $2.9964% (86%)20,000 .. 50,0000%00:00 (00:00)
118 Super Chibi Knight Jun 24, 2015 $4.9964% (86%)20,000 .. 50,0000%00:00 (00:00)
119 Meltdown Jun 5, 2014 $6.9964% (86%)50,000 .. 100,0000.85%07:09 (02:23)
120 Star Ruler Sep 20, 2010 $9.9964% (86%)100,000 .. 200,0000%00:00 (00:00)
121 Dustoff Heli Rescue Mar 6, 2015 $3.9964% (86%)20,000 .. 50,0000%00:00 (00:00)
122 Steel Rain Dec 3, 2015 $9.99N/A (N/A)0 .. 20,0000%00:00 (00:00)
123 Age of Wonders Shadow Magic Oct 2010 $9.9964% (86%/82%)100,000 .. 200,0000%00:00 (00:00)
124 Western 1849 Reloaded Feb 10, 2017 $4.9964% (86%)0 .. 20,0000%00:00 (00:00)
125 ENSLAVED: Odyssey to the West Premium Edition Oct 24, 2013 $19.9961% (85%/70%)200,000 .. 500,0000%00:00 (00:00)
126 Last Knight: Rogue Rider Edition Oct 3, 2014 $7.9961% (85%)20,000 .. 50,0000%00:00 (00:00)
127 The Way May 20, 2016 $14.9961% (85%/67%)50,000 .. 100,0000%00:00 (00:00)
128 Weapon of Choice Sep 23, 2015 $4.99N/A (N/A)0 .. 20,0000%00:00 (00:00)
129 GIBZ Apr 7, 2017 $7.9961% (85%)20,000 .. 50,0003.7%00:09 (00:03)
130 Ghost Master Aug 23, 2003 $0.9961% (85%/81%)100,000 .. 200,0000%00:00 (00:00)
131 Gurgamoth Feb 16, 2016 $4.99N/A (N/A)20,000 .. 50,0000%00:00 (00:00)
132 ShootMania Storm Apr 10, 2013 $19.9961% (85%/76%)50,000 .. 100,0000%00:00 (00:00)
133 Rooks Keep Dec 5, 2014 $7.99N/A (N/A)20,000 .. 50,0000%00:00 (00:00)
134 Interloper May 21, 2015 Free61% (85%/77%)50,000 .. 100,0000%00:00 (00:00)
135 Legend (1994) Nov 10, 2015 $4.99N/A (N/A)0 .. 20,0000%00:00 (00:00)
136 VelocityUltra Dec 12, 2013 $9.9961% (85%)50,000 .. 100,0000%00:00 (00:00)
137 Ballistic Tanks Sep 20, 2016 $4.9959% (84%)0 .. 20,0000%00:00 (00:00)
138 Decisive Campaigns: The Blitzkrieg from Warsaw to Paris Jan 22, 2015 $39.99N/A (N/A)0 .. 20,0000%00:00 (00:00)
139 Super Furball Apr 21, 2015 $3.99N/A (N/A)0 .. 20,0000%00:00 (00:00)
140 Delta Force 2 Oct 31, 1999 $4.9959% (84%)50,000 .. 100,0000%00:00 (00:00)
141 The Men of Yoshiwara: Kikuya Oct 14, 2015 $29.9959% (84%)0 .. 20,0000%00:00 (00:00)
142 Fat Chicken Dec 4, 2014 $9.99N/A (N/A)0 .. 20,0000%00:00 (00:00)
143 CRYPTARK Jun 20, 2017 $14.9959% (84%/80%)50,000 .. 100,0001.3%00:02 (00:00)
144 Neon Shadow Aug 25, 2016 $4.99N/A (N/A)0 .. 20,0000%00:00 (00:00)
145 Foresight Nov 28, 2014 $4.99N/A (N/A)0 .. 20,0000%00:00 (00:00)
146 Act of War: Direct Action Mar 14, 2005 $2.9959% (84%/82%)20,000 .. 50,0000%00:00 (00:00)
147 NOBUNAGA'S AMBITION: Sphere of Influence Sep 1, 2015 $59.9956% (83%/70%)20,000 .. 50,0005.56%00:35 (00:11)
148 Advanced Tactics Gold Aug 15, 2014 $29.9956% (83%)0 .. 20,0000%00:00 (00:00)
149 Ace of Protectors Jun 27, 2016 $1.99N/A (N/A)20,000 .. 50,0000%00:00 (00:00)
150 PixelJunk Shooter Ultimate Oct 21, 2015 $9.9956% (83%)20,000 .. 50,0000%00:00 (00:00)
151 Orbital Gear Aug 7, 2014 $9.9956% (83%/59%)200,000 .. 500,0000%00:00 (00:00)
152 Galaxy Admirals Jan 17, 2017 $1.9956% (83%)50,000 .. 100,0000%00:00 (00:00)
153 Sudden Strike 2 Gold May 22, 2017 $5.9956% (83%)20,000 .. 50,0002.44%00:01 (00:00)
154 Eador: Genesis Aug 7, 2009 $5.9956% (83%)50,000 .. 100,0000%00:00 (00:00)
155 The Tiny Tale 2 Jan 30, 2015 $6.99N/A (N/A)0 .. 20,0000%00:00 (00:00)
156 Magnifico Dec 2, 2014 $4.99N/A (N/A)50,000 .. 100,0000%00:00 (00:00)
157 Square Brawl Oct 22, 2015 $4.9954% (82%)0 .. 20,0000%00:00 (00:00)
158 Crush Your Enemies Jul 13, 2016 $9.9954% (82%/63%)20,000 .. 50,0000%00:00 (00:00)
159 TY the Tasmanian Tiger 4 Sep 17, 2015 $5.9954% (82%)20,000 .. 50,0000%00:00 (00:00)
160 Battle Group 2 Jun 13, 2014 $7.9954% (82%)50,000 .. 100,0000%00:00 (00:00)
161 Bulletstorm: Full Clip Edition Apr 7, 2017 $39.9954% (82%/76%)50,000 .. 100,0000.83%00:38 (00:12)
162 Toadled Sep 22, 2016 $0.9951% (81%)50,000 .. 100,0000%00:00 (00:00)
163 rymdkapsel Jan 30, 2014 $7.9951% (81%/77%)0 .. 20,0000%00:00 (00:00)
164 Disciples Sacred Lands Gold Oct 7, 2014 $7.9951% (81%)50,000 .. 100,0000%00:00 (00:00)
165 Blade Arcus from Shining: Battle Arena Jul 28, 2016 $29.9951% (81%)0 .. 20,0008.33%00:37 (00:12)
166 Shadow Ops: Red Mercury Jul 2, 2014 $6.9951% (81%/61%)20,000 .. 50,0000%00:00 (00:00)
167 Perimeter Apr 3, 2014 $3.9951% (81%/77%)20,000 .. 50,0000%00:00 (00:00)
168 Fantasy Wars Aug 6, 2010 $4.9951% (81%/67%)50,000 .. 100,0000%00:00 (00:00)
169 Gun Metal Jan 16, 2014 $2.9951% (81%)200,000 .. 500,0000.31%03:18 (02:11)
170 Tiki Man Jun 5, 2015 $0.551% (81%)20,000 .. 50,0000%00:00 (00:00)
171 In Verbis Virtus Apr 3, 2015 $19.9951% (81%)50,000 .. 100,0000%00:00 (00:00)
172 Concealed Intent Aug 2, 2016 $14.99N/A (N/A)0 .. 20,0000%00:00 (00:00)
173 htoL#NiQ: The Firefly Diary / htoL#NiQ-ホタルノニッキ- May 18, 2016 $9.9951% (81%)20,000 .. 50,0003.7%07:21 (02:27)
174 Locoland May 28, 2015 $0.9951% (81%)0 .. 20,0000%00:00 (00:00)
175 Rack N Ruin Sep 1, 2015 $9.99N/A (N/A)0 .. 20,0000%00:00 (00:00)
176 Supreme Ruler 2020 Gold Jun 17, 2008 $9.9951% (81%/65%)50,000 .. 100,0000%00:00 (00:00)
177 Monday Night Combat Jan 24, 2011 $4.9949% (80%/82%)200,000 .. 500,0000%00:00 (00:00)
178 Fleet Command May 15, 1999 $9.9949% (80%)50,000 .. 100,0000%00:00 (00:00)
179 Junk Jack Nov 30, 2016 $14.9949% (80%)0 .. 20,0000%00:00 (00:00)
180 Zeno Clash 2 Apr 30, 2013 $14.9949% (80%)200,000 .. 500,0000%00:00 (00:00)
181 Bet On Soldier Dec 5, 2014 $7.9949% (80%)50,000 .. 100,0000%00:00 (00:00)
182 Run Rabbit Run Mar 31, 2016 $3.9949% (80%)0 .. 20,0000%00:00 (00:00)
183 Protoshift Jan 15, 2016 $0.99N/A (N/A)0 .. 20,0000%00:00 (00:00)
184 Child Of Ault Jan 24, 2017 $9.99N/A (N/A)0 .. 20,0000%00:00 (00:00)
185 Star Wolves 3: Civil War Mar 2, 2010 $4.9949% (80%)100,000 .. 200,0000%00:00 (00:00)
186 Trigger Runners Mar 3, 2016 $1.99N/A (N/A)0 .. 20,0000%00:00 (00:00)
187 Vietnam ‘65 Mar 5, 2015 $9.9949% (80%/81%)20,000 .. 50,0000%00:00 (00:00)
188 Interplanetary May 12, 2015 N/A49% (80%)100,000 .. 200,0001.19%02:15 (03:23)
189 ROD: Revolt Of Defense Aug 12, 2016 $0.9949% (80%)20,000 .. 50,0000%00:00 (00:00)
190 Umihara Kawase Shun: Steam Edition Nov 24, 2015 $11.99N/A (N/A)0 .. 20,0000%00:00 (00:00)
191 Graviteam Tactics: Operation Star Feb 11, 2014 $29.9949% (80%)20,000 .. 50,0000%00:00 (00:00)
192 Bloodsports.TV Mar 30, 2015 $9.9949% (80%/69%)100,000 .. 200,0000.43%03:28 (01:09)
193 Envoy Mar 17, 2016 $4.99N/A (N/A)50,000 .. 100,0000%00:00 (00:00)
194 Defense Zone Jul 14, 2014 $3.99N/A (N/A)0 .. 20,0000%00:00 (00:00)
195 Conflict Desert Storm Sep 13, 2002 $6.9949% (80%/56%)50,000 .. 100,0001.43%00:07 (00:02)
196 Conquest of Elysium 3 Oct 24, 2012 $9.9949% (80%)20,000 .. 50,0000%00:00 (00:00)
197 Demons with Shotguns Apr 25, 2016 $9.99N/A (N/A)0 .. 20,0002.5%03:11 (01:03)
198 Making History: The Calm & the Storm Mar 13, 2007 $4.9949% (80%/70%)50,000 .. 100,0001.03%00:16 (00:05)
199 7,62 High Calibre Apr 30, 2014 $4.9949% (80%)50,000 .. 100,0000%00:00 (00:00)
200 Legends of Callasia Jun 10, 2016 Free49% (80%)50,000 .. 100,0000%00:00 (00:00)
201 Enemy Mind Jun 6, 2014 $9.9949% (80%)200,000 .. 500,0000%00:00 (00:00)
202 Hail to the King: Deathbat Oct 30, 2014 $5.9949% (80%)0 .. 20,0000%00:00 (00:00)
203 She Wants Me Dead May 13, 2016 $7.99N/A (N/A)0 .. 20,0000%00:00 (00:00)
204 Mold on Pizza Sep 25, 2015 $2.9947% (79%)0 .. 20,0000%00:00 (00:00)
205 Starscape Mar 27, 2003 $7.9947% (79%)20,000 .. 50,0000%00:00 (00:00)
206 Caster Mar 19, 2009 $1.9947% (79%)200,000 .. 500,0000%00:00 (00:00)
207 Advent Rising Aug 9, 2005 $9.9947% (79%/70%)50,000 .. 100,0000%00:00 (00:00)
208 Ironcast Mar 26, 2015 $14.9947% (79%/75%)20,000 .. 50,0007.69%01:52 (01:14)
209 The Legend of Dark Witch Dec 1, 2015 $4.9947% (79%)20,000 .. 50,0000%00:00 (00:00)
210 Fate of the World Feb 28, 2011 $9.9947% (79%/70%)50,000 .. 100,0000%00:00 (00:00)
211 Age of Gladiators Feb 25, 2016 $9.9947% (79%)50,000 .. 100,0000%00:00 (00:00)
212 Fortified Feb 3, 2016 $14.9947% (79%)500,000 .. 1,000,0000.66%02:06 (03:05)
213 Demolition Inc. Sep 19, 2011 $5.9947% (79%)50,000 .. 100,0000%00:00 (00:00)
214 Nuclear Dawn Sep 26, 2011 $9.9947% (79%/71%)200,000 .. 500,0000.44%09:03 (06:01)
215 David. Feb 16, 2015 $1.9947% (79%)50,000 .. 100,0000.68%03:01 (01:00)
216 TRON RUN/r Feb 16, 2016 $19.9947% (79%)0 .. 20,0000%00:00 (00:00)
217 TASTEE: Lethal Tactics May 10, 2016 $14.9947% (79%)20,000 .. 50,0001.56%00:28 (00:09)
218 PAC-MAN and the Ghostly Adventures Oct 29, 2013 $19.9947% (79%)0 .. 20,0000%00:00 (00:00)
219 Pharaonic Apr 28, 2016 $14.9947% (79%)20,000 .. 50,0000%00:00 (00:00)
220 Strike Suit Zero: Director's Cut Apr 8, 2014 $19.9945% (78%)20,000 .. 50,0000%00:00 (00:00)
221 Defense Zone 3 Ultra HD Dec 14, 2016 $3.9945% (78%)20,000 .. 50,0000%00:00 (00:00)
222 Deadly 30 Jan 8, 2014 $4.9945% (78%)100,000 .. 200,0000.38%02:05 (00:41)
223 Mysterium: A Psychic Clue Game Jan 12, 2017 $6.9945% (78%)50,000 .. 100,0000%00:00 (00:00)
224 Dead Rising 2: Off the Record Oct 11, 2011 $19.9945% (78%/66%)200,000 .. 500,0000.57%01:20 (00:39)
225 Anomaly 2 May 15, 2013 $14.9945% (78%/77%)200,000 .. 500,0000.19%01:32 (00:30)
226 Zombie Party Jun 10, 2016 $9.9945% (78%)100,000 .. 200,0000%00:00 (00:00)
227 Zombie Killtime Aug 4, 2015 $1.99N/A (N/A)0 .. 20,0000%00:00 (00:00)
228 Cultures - 8th Wonder of the World Mar 26, 2015 $4.9945% (78%)50,000 .. 100,0000.64%00:04 (00:01)
229 Anomaly Warzone Earth Mobile Campaign Nov 6, 2013 $4.9945% (78%)100,000 .. 200,0000.43%01:32 (00:30)
230 Blue Effect VR Feb 8, 2017 $14.9945% (78%)0 .. 20,0000%00:00 (00:00)
231 Dominions 3: The Awakening Sep 10, 2013 $19.9945% (78%/82%)0 .. 20,0000%00:00 (00:00)
232 Battle Mages: Sign of Darkness Jul 24, 2014 $0.9945% (78%)20,000 .. 50,0000%00:00 (00:00)
233 Tank Destroyer Mar 9, 2017 $0.545% (78%)20,000 .. 50,0000%00:00 (00:00)
234 Heroes of Might & Magic V: Hammers of Fate Nov 14, 2006 $9.9945% (78%/66%)100,000 .. 200,0000.93%00:04 (00:02)
235 Star Realms Mar 8, 2016 Free45% (78%)100,000 .. 200,0000.92%01:46 (00:35)
236 Gatling Gears Aug 30, 2011 $9.9945% (78%)20,000 .. 50,0000%00:00 (00:00)
237 King of Dragon Pass Jul 28, 2015 $11.9945% (78%)20,000 .. 50,0000%00:00 (00:00)
238 Deadlings: Rotten Edition Nov 11, 2014 $3.9943% (77%)50,000 .. 100,0000%00:00 (00:00)
239 BloodRayne Sep 9, 2003 $9.9943% (77%/65%)50,000 .. 100,0000.81%02:58 (00:59)
240 Warhammer 40,000: Armageddon Nov 26, 2014 $39.9943% (77%/68%)20,000 .. 50,0005.56%00:16 (00:05)
241 Warlords Battlecry III Jan 22, 2016 $9.9943% (77%/73%)20,000 .. 50,00010%00:02 (00:00)
242 The Political Machine 2016 Feb 4, 2016 $4.9943% (77%)50,000 .. 100,0000%00:00 (00:00)
243 Aeon Command Jul 3, 2014 $2.9943% (77%)20,000 .. 50,0000%00:00 (00:00)
244 Ninjahtic Jul 6, 2015 $1.9943% (77%)0 .. 20,0000%00:00 (00:00)
245 Jim Power -The Lost Dimension Sep 30, 2015 $4.99N/A (N/A)0 .. 20,0000%00:00 (00:00)
246 A Blind Legend Apr 7, 2016 $6.9943% (77%)0 .. 20,0000%00:00 (00:00)
247 Sky Gamblers: Storm Raiders Jan 7, 2015 $9.9943% (77%)0 .. 20,0000%00:00 (00:00)
248 Curse of the Crescent Isle DX Aug 21, 2015 $0.9943% (77%)0 .. 20,0000%00:00 (00:00)
249 Vector Strain Dec 9, 2015 $4.99N/A (N/A)20,000 .. 50,0000%00:00 (00:00)
250 Age of Wonders Oct 2010 $5.9943% (77%)100,000 .. 200,0000%00:00 (00:00)
251 Auralux: Constellations Jun 1, 2016 $9.99N/A (N/A)0 .. 20,0000%00:00 (00:00)
252 Dangerous Waters Feb 7, 2006 $14.9943% (77%/82%)50,000 .. 100,0000%00:00 (00:00)
253 McDROID Sep 5, 2014 $9.9943% (77%)0 .. 20,0000%00:00 (00:00)
254 Starchaser: Priestess of the Night Sky Jul 24, 2015 $9.99N/A (N/A)0 .. 20,0000%00:00 (00:00)
255 Rocketbirds 2 Evolution Jan 26, 2017 $9.9941% (76%)20,000 .. 50,0000%00:00 (00:00)
256 Battlezone Gold Edition May 11, 2017 $34.9941% (76%)0 .. 20,0000%00:00 (00:00)
257 Olympia Rising Jul 23, 2015 $4.9941% (76%)20,000 .. 50,0000%00:00 (00:00)
258 Corgi Warlock Dec 3, 2015 $1.9941% (76%)20,000 .. 50,0000%00:00 (00:00)
259 Civil War II Jul 3, 2014 $39.9941% (76%)0 .. 20,0000%00:00 (00:00)
260 Cashtronauts Aug 31, 2016 $2.99N/A (N/A)0 .. 20,0003.13%04:03 (01:21)
261 Chaser Aug 22, 2003 $4.9941% (76%/66%)100,000 .. 200,0000%00:00 (00:00)
262 Making History II: The War of the World Jun 22, 2010 $14.9941% (76%/38%)20,000 .. 50,0000%00:00 (00:00)
263 Z Jul 4, 2014 $6.9941% (76%)100,000 .. 200,0000.29%15:34 (05:11)
264 Velocity 2X Aug 19, 2015 $19.99N/A (N/A)50,000 .. 100,0000%00:00 (00:00)
265 Painkiller Hell & Damnation Oct 31, 2012 $19.9941% (76%/64%)500,000 .. 1,000,0000.34%01:03 (00:42)
266 Arcane Sorcery Sep 15, 2015 $4.99N/A (N/A)0 .. 20,0000%00:00 (00:00)
267 After The End: The Harvest Jun 2, 2017 $4.99N/A (N/A)20,000 .. 50,0000%00:00 (00:00)
268 Perimeter: Emperor's Testament May 22, 2014 $3.99N/A (N/A/72%)20,000 .. 50,0000%00:00 (00:00)
269 Star Hammer: The Vanguard Prophecy Jun 4, 2015 $19.9939% (75%/69%)0 .. 20,00011.11%00:07 (00:02)
270 Vampire of the Sands Jul 17, 2015 $4.9939% (75%)20,000 .. 50,0000%00:00 (00:00)
271 Riddled Corpses Jun 2, 2015 $7.9939% (75%)20,000 .. 50,0000%00:00 (00:00)
272 Onechanbara Z2: Chaos Jun 2, 2016 $39.9939% (75%)0 .. 20,0000%00:00 (00:00)
273 CivCity: Rome Jul 24, 2006 $9.9939% (75%/67%)50,000 .. 100,0000%00:00 (00:00)
274 Victory At Sea Aug 8, 2014 $7.4939% (75%)20,000 .. 50,0000%00:00 (00:00)
275 Heaven Forest NIGHTS Mar 14, 2017 $0.99N/A (N/A)100,000 .. 200,0000.23%02:28 (00:49)
276 Fist Puncher Jun 21, 2013 $9.9939% (75%/73%)20,000 .. 50,0001.45%00:35 (00:11)
277 Death by Game Show Jan 22, 2016 $9.99N/A (N/A)20,000 .. 50,0001.45%301:14 (100:24)
278 Hunting Unlimited 2008 Sep 1, 2007 $9.99N/A (N/A)20,000 .. 50,0000%00:00 (00:00)
279 Bubsy Two-Fur Dec 17, 2015 $4.9939% (75%)20,000 .. 50,0003.85%00:03 (00:01)
280 Cuban Missile Crisis Mar 25, 2015 $4.9939% (75%)20,000 .. 50,0000%00:00 (00:00)
281 Livelock Aug 30, 2016 $9.9939% (75%/73%)20,000 .. 50,0000%00:00 (00:00)
282 Rocket Knight May 11, 2010 $14.9939% (75%/63%)0 .. 20,0000%00:00 (00:00)
283 Platformines Mar 28, 2014 $9.9939% (75%/67%)100,000 .. 200,0000.58%01:01 (00:20)
284 Spirits of Xanadu Mar 26, 2015 $0.9937% (74%)20,000 .. 50,0000%00:00 (00:00)
285 The Aquatic Adventure of the Last Human Jan 19, 2016 $9.9937% (74%/76%)0 .. 20,0000%00:00 (00:00)
286 Smell Of Death Jul 4, 2016 $9.99N/A (N/A)0 .. 20,0000%00:00 (00:00)
287 Commander: The Great War Jul 25, 2014 $29.9937% (74%)20,000 .. 50,0000%00:00 (00:00)
288 WARSHIFT Oct 12, 2016 $12.9937% (74%)20,000 .. 50,0000%00:00 (00:00)
289 Master Reboot Oct 29, 2013 $14.9937% (74%/59%)50,000 .. 100,0000%00:00 (00:00)
290 Monster Monpiece Mar 14, 2017 $19.9937% (74%)0 .. 20,0001.75%40:59 (13:39)
291 Albino Lullaby: Episode 1 Sep 14, 2015 $9.9937% (74%)20,000 .. 50,0000%00:00 (00:00)
292 Making History: The Great War Jan 29, 2015 $29.9937% (74%)20,000 .. 50,0000%00:00 (00:00)
293 TableTop Soccer Apr 22, 2016 $0.9937% (74%)0 .. 20,0000%00:00 (00:00)
294 Extravaganza Rising Jul 21, 2016 N/AN/A (N/A)20,000 .. 50,0000%00:00 (00:00)
295 BossConstructor Oct 24, 2016 $14.9937% (74%)0 .. 20,0000%00:00 (00:00)
296 A.R.E.S. Extinction Agenda EX Oct 3, 2014 $9.9937% (74%)0 .. 20,0000%00:00 (00:00)
297 Ubersoldier II Mar 25, 2014 $1.9935% (73%/62%)100,000 .. 200,0000%00:00 (00:00)
298 Battle Fleet 2 Nov 20, 2014 $14.9935% (73%)20,000 .. 50,0000%00:00 (00:00)
299 Viktor Jun 13, 2014 $0.7935% (73%)20,000 .. 50,0000%00:00 (00:00)
300 Supreme Ruler Ultimate Oct 17, 2014 $19.9935% (73%)20,000 .. 50,0000%00:00 (00:00)
301 Codex of Victory Mar 16, 2017 $14.9935% (73%)0 .. 20,00012%03:42 (03:42)
302 Divinity: Dragon Commander Aug 6, 2013 $39.9935% (73%)200,000 .. 500,0000%00:00 (00:00)
303 FEIST Jul 23, 2015 $9.9935% (73%/65%)20,000 .. 50,0000%00:00 (00:00)
304 Sid Meier’s Ace Patrol Aug 27, 2013 $4.9935% (73%)500,000 .. 1,000,0000.2%08:18 (02:46)
305 Rex Rocket Aug 5, 2014 $4.9935% (73%)20,000 .. 50,0000%00:00 (00:00)
306 Distant Worlds: Universe May 23, 2014 $59.9935% (73%/81%)50,000 .. 100,0005.13%04:35 (03:03)
307 Gold Rush! Anniversary Nov 7, 2014 $5.99N/A (N/A)100,000 .. 200,0000.58%02:03 (01:22)
308 Hot Tin Roof: The Cat That Wore A Fedora Feb 20, 2015 $14.9935% (73%/66%)100,000 .. 200,0000.67%01:32 (00:30)
309 Warp Mar 21, 2012 $9.9934% (72%)20,000 .. 50,0000%00:00 (00:00)
310 Smithy Jun 3, 2016 $3.99N/A (N/A)50,000 .. 100,0000%00:00 (00:00)
311 Pongo May 11, 2015 $0.9934% (72%)100,000 .. 200,0000%00:00 (00:00)
312 Rise & Shine Jan 13, 2017 $14.9934% (72%)50,000 .. 100,0006.47%02:15 (01:23)
313 Banzai Escape Feb 29, 2016 $5.9934% (72%)20,000 .. 50,0000%00:00 (00:00)
314 Pick a Hero Jun 9, 2016 $1.99N/A (N/A)0 .. 20,0000%00:00 (00:00)
315 Wildlife Park 2 - Crazy Zoo Jul 17, 2014 $3.99N/A (N/A)0 .. 20,0000%00:00 (00:00)
316 Incandescent Jun 30, 2015 $0.9934% (72%)20,000 .. 50,0000%00:00 (00:00)
317 Retrovirus Jan 31, 2013 $9.9934% (72%/70%)20,000 .. 50,0000%00:00 (00:00)
318 Cast of the Seven Godsends - Redux Jul 20, 2015 $9.9934% (72%)20,000 .. 50,0000%00:00 (00:00)
319 King Arthur - The Role-playing Wargame Nov 24, 2009 $9.9934% (72%)200,000 .. 500,0000%00:00 (00:00)
320 Elliot Quest Nov 10, 2014 $9.9934% (72%)20,000 .. 50,0001.43%00:15 (00:05)
321 Disney Planes Oct 6, 2014 $19.99N/A (N/A)0 .. 20,0000%00:00 (00:00)
322 Auro: A Monster-Bumping Adventure Apr 13, 2016 $6.99N/A (N/A)0 .. 20,0000%00:00 (00:00)
323 Wyv and Keep: The Temple of the Lost Idol Aug 8, 2014 $14.99N/A (N/A)20,000 .. 50,0000%00:00 (00:00)
324 Deadnaut Dec 8, 2014 $9.9934% (72%)0 .. 20,0000%00:00 (00:00)
325 Elven Legacy Apr 7, 2009 $4.9934% (72%/71%)50,000 .. 100,0000%00:00 (00:00)
326 VRZ: Torment May 18, 2017 $9.9934% (72%)0 .. 20,0000%00:00 (00:00)
327 Lost Planet: Extreme Condition Jun 26, 2007 $14.9934% (72%/66%)200,000 .. 500,0000.57%00:01 (00:00)
328 REDCON Apr 22, 2016 $5.9934% (72%)0 .. 20,0005.56%00:08 (00:02)
329 Airship Dragoon Aug 26, 2014 $19.99N/A (N/A)0 .. 20,0000%00:00 (00:00)
330 Spud's Quest Jul 31, 2014 $7.99N/A (N/A)0 .. 20,0000%00:00 (00:00)
331 Civil War: Battle of Petersburg Feb 8, 2017 $0.9932% (71%)0 .. 20,0000%00:00 (00:00)
332 FIVE: Champions of Canaan Sep 27, 2016 $3.99N/A (N/A)0 .. 20,0000%00:00 (00:00)
333 There Came an Echo Feb 24, 2015 $14.9932% (71%/58%)20,000 .. 50,0000%00:00 (00:00)
334 Cross of the Dutchman Sep 10, 2015 $8.9932% (71%/59%)20,000 .. 50,0001.67%01:46 (00:35)
335 The Last Federation Apr 18, 2014 $19.9932% (71%/72%)50,000 .. 100,0000%00:00 (00:00)
336 Tom Clancy's EndWar Feb 25, 2009 $9.9932% (71%/68%)50,000 .. 100,0000%00:00 (00:00)
337 AirMech Command Mar 8, 2017 $19.9932% (71%)0 .. 20,0000%00:00 (00:00)
338 Zoo Empire Sep 3, 2015 $6.99N/A (N/A/59%)0 .. 20,0000%00:00 (00:00)
339 LEGO Indiana Jones 2: The Adventure Continues Feb 18, 2010 $19.9932% (71%/66%)50,000 .. 100,0000%00:00 (00:00)
340 Jagged Alliance 2 - Wildfire Mar 8, 2004 $6.9932% (71%)500,000 .. 1,000,0000.95%06:40 (07:03)
341 Phoning Home Feb 7, 2017 $19.9932% (71%/61%)20,000 .. 50,0003.13%01:42 (00:47)
342 Battle Time Sep 29, 2016 $0.9932% (71%)50,000 .. 100,0001.36%02:47 (01:51)
343 rooMaze Mar 3, 2017 $1.9932% (71%)100,000 .. 200,0000%00:00 (00:00)
344 Fatal Fight Jun 10, 2016 $2.99N/A (N/A)0 .. 20,0000%00:00 (00:00)
345 Space Colony: Steam Edition Apr 30, 2015 $14.9930% (70%/74%)20,000 .. 50,0001.79%00:32 (00:10)
346 A.R.E.S.: Extinction Agenda Jan 20, 2011 $4.9930% (70%/68%)100,000 .. 200,0000%00:00 (00:00)
347 Collapse Apr 11, 2014 $19.9930% (70%)50,000 .. 100,0000%00:00 (00:00)
348 8-Bit Commando Jun 2, 2014 $2.9930% (70%)50,000 .. 100,0001.83%00:02 (00:01)
349 Lux Delux May 1, 2015 $9.9930% (70%)20,000 .. 50,0000%00:00 (00:00)
350 The Nightmare Cooperative Jul 16, 2014 $4.99N/A (N/A)50,000 .. 100,0001.87%00:05 (00:03)
351 The Superfluous May 19, 2017 $4.99N/A (N/A)0 .. 20,0000%00:00 (00:00)
352 Strategy & Tactics: Wargame Collection Apr 22, 2016 $9.9929% (69%)20,000 .. 50,0000%00:00 (00:00)
353 Little King's Story Aug 5, 2016 $19.9929% (69%/62%)0 .. 20,0000%00:00 (00:00)
354 Othello Mar 19, 2015 $9.9929% (69%)0 .. 20,0000%00:00 (00:00)
355 Sol 0: Mars Colonization Jan 15, 2016 $3.9929% (69%)20,000 .. 50,0000%00:00 (00:00)
356 Warrior Kings Apr 24, 2014 $9.99N/A (N/A/73%)20,000 .. 50,0000%00:00 (00:00)
357 Panzer Tactics HD May 22, 2014 $9.9929% (69%/69%)20,000 .. 50,0000%00:00 (00:00)
358 Bedlam Oct 13, 2015 $12.9927% (68%/54%)100,000 .. 200,0000%00:00 (00:00)
359 Chainsaw Warrior Oct 7, 2013 $0.4927% (68%)100,000 .. 200,0001.41%02:25 (02:02)
360 ManaCollect Apr 17, 2015 $6.99N/A (N/A)0 .. 20,0000%00:00 (00:00)
361 Royal Defense Nov 10, 2014 $4.9927% (68%)50,000 .. 100,0000%00:00 (00:00)
362 Brigade E5: New Jagged Union Apr 30, 2014 $3.9927% (68%/41%)0 .. 20,0000%00:00 (00:00)
363 YAIBA: NINJA GAIDEN Z Mar 21, 2014 $29.9927% (68%/49%)20,000 .. 50,0006.9%00:54 (00:36)
364 Pigmentone Jul 8, 2016 $1.99N/A (N/A)0 .. 20,0003.23%09:28 (03:09)
365 Alea Jacta Est Nov 4, 2014 $24.99N/A (N/A)20,000 .. 50,0000%00:00 (00:00)
366 Guns n Zombies Oct 30, 2014 $7.9927% (68%)100,000 .. 200,0000%00:00 (00:00)
367 Revolution Under Siege Gold Jul 2, 2015 $24.9927% (68%)0 .. 20,0000%00:00 (00:00)
368 The Living Dungeon Nov 2, 2015 $9.99N/A (N/A)0 .. 20,0000%00:00 (00:00)
369 Space Food Truck Mar 25, 2016 $9.9927% (68%)20,000 .. 50,0000%00:00 (00:00)
370 Gates of Horizon Dec 18, 2014 Free27% (68%)0 .. 20,0000%00:00 (00:00)
371 Stonerid Aug 15, 2014 $4.9926% (67%)20,000 .. 50,0000%00:00 (00:00)
372 Survivor Squad: Gauntlets Nov 16, 2015 $0.9926% (67%)20,000 .. 50,0001.59%00:04 (00:01)
373 The Hive Aug 25, 2016 $9.9926% (67%)20,000 .. 50,0000%00:00 (00:00)
374 Heroes of Arca Feb 16, 2017 Free26% (67%)0 .. 20,0000%00:00 (00:00)
375 Toren May 11, 2015 $9.9926% (67%/57%)50,000 .. 100,0000%00:00 (00:00)
376 FIVE: Guardians of David Nov 24, 2015 $9.9926% (67%/66%)20,000 .. 50,0000%00:00 (00:00)
377 Zafehouse: Diaries Sep 6, 2013 $1.9926% (67%)50,000 .. 100,0000%00:00 (00:00)
378 Infinity Runner Jul 14, 2014 $6.9926% (67%/56%)0 .. 20,0000%00:00 (00:00)
379 Nomad Fleet Apr 19, 2016 $4.9926% (67%)0 .. 20,0007.69%04:42 (01:34)
380 Kill The Plumber Dec 31, 2015 $4.9926% (67%)0 .. 20,0000%00:00 (00:00)
381 Toy Odyssey: The Lost and Found Sep 20, 2016 $14.9926% (67%/66%)20,000 .. 50,0000%00:00 (00:00)
382 Scourge: Outbreak Apr 2, 2014 $7.9924% (66%)100,000 .. 200,0000%00:00 (00:00)
383 1849 May 8, 2014 $14.9924% (66%)20,000 .. 50,0000%00:00 (00:00)
384 Assassin’s Creed Chronicles: India Jan 12, 2016 $9.9924% (66%)20,000 .. 50,0001.41%00:10 (00:03)
385 Zombie Camp Jul 31, 2016 $1.99N/A (N/A)0 .. 20,0000%00:00 (00:00)
386 March of the Eagles Feb 18, 2013 $19.9924% (66%/71%)50,000 .. 100,0000%00:00 (00:00)
387 Urban Pirate Jun 17, 2016 $6.99N/A (N/A)0 .. 20,0000%00:00 (00:00)
388 Theatre of War 2: Africa 1943 Apr 24, 2009 $4.9924% (66%/63%)100,000 .. 200,0000.79%00:24 (00:08)
389 Sky To Fly: Faster Than Wind Mar 25, 2016 $3.99N/A (N/A)0 .. 20,0000%00:00 (00:00)
390 Zombie City Defense 2 Aug 19, 2016 $9.9924% (66%)0 .. 20,0000%00:00 (00:00)
391 1775: Rebellion Sep 29, 2016 $24.99N/A (N/A)0 .. 20,0000%00:00 (00:00)
392 Fair Strike Apr 23, 2015 $3.99N/A (N/A/56%)0 .. 20,0000%00:00 (00:00)
393 Quick Slick Deadly Sep 21, 2015 $1.99N/A (N/A)20,000 .. 50,0000%00:00 (00:00)
394 Marauder Apr 4, 2014 $1.9924% (66%)50,000 .. 100,0000%00:00 (00:00)
395 Commander Cool 2 Dec 17, 2015 $2.99N/A (N/A)20,000 .. 50,0001.37%02:56 (00:58)
396 Men of War: Condemned Heroes Apr 12, 2012 $7.9924% (66%/57%)100,000 .. 200,0000%00:00 (00:00)
397 RISK: Factions Mar 8, 2011 $9.9924% (66%/77%)50,000 .. 100,0000%00:00 (00:00)
398 Mad Combat Marines Jul 13, 2016 $0.9924% (66%)20,000 .. 50,0002.94%00:09 (00:04)
399 Sengoku Sep 15, 2011 $9.9924% (66%/70%)100,000 .. 200,0000%00:00 (00:00)
400 Ground Breakers Jun 15, 2016 $0.99N/A (N/A)0 .. 20,0000%00:00 (00:00)
401 7th Legion Oct 23, 2014 $6.99N/A (N/A)20,000 .. 50,0000%00:00 (00:00)
402 Zombie Tycoon 2: Brainhov's Revenge Dec 9, 2013 $4.9923% (65%)50,000 .. 100,0000%00:00 (00:00)
403 Platypus II Aug 15, 2014 $6.9923% (65%)200,000 .. 500,0000.83%01:50 (02:03)
404 Warlock 2: The Exiled Apr 10, 2014 $19.9922% (64%/73%)50,000 .. 100,0000%00:00 (00:00)
405 Gnumz: Masters of Defense Dec 21, 2015 $4.99N/A (N/A)20,000 .. 50,0000%00:00 (00:00)
406 Port Royale 2 Apr 30, 2004 $4.9922% (64%/75%)50,000 .. 100,0000%00:00 (00:00)
407 Zoo Rampage Jul 9, 2014 $3.9922% (64%)20,000 .. 50,0000%00:00 (00:00)
408 Theatre of War 2: Kursk 1943 Mar 9, 2010 $4.9922% (64%)50,000 .. 100,0001.3%01:26 (00:28)
409 UnSummoning: the Spectral Horde Dec 21, 2015 FreeN/A (N/A)0 .. 20,0000%00:00 (00:00)
410 Frozen Synapse Prime Nov 14, 2014 $24.9922% (64%/83%)100,000 .. 200,0000%00:00 (00:00)
411 My Super Tower 2 Jan 27, 2017 $0.99N/A (N/A)50,000 .. 100,0004.08%03:42 (02:27)
412 Kaiju-A-GoGo Apr 23, 2015 $9.9922% (64%)20,000 .. 50,0000%00:00 (00:00)
413 Hunters Of The Dead Sep 4, 2014 $4.9922% (64%)20,000 .. 50,0000%00:00 (00:00)
414 Devil's Dare 悪魔の挑戦 Oct 21, 2014 $12.9922% (64%)20,000 .. 50,0000%00:00 (00:00)
415 Revenge of Roger Rouge Apr 22, 2016 $0.99N/A (N/A)20,000 .. 50,0000%00:00 (00:00)
416 The Seven Years War (1756-1763) Oct 30, 2015 $1.9922% (64%)0 .. 20,0000%00:00 (00:00)
417 Link Apr 22, 2016 $4.99N/A (N/A)0 .. 20,0000%00:00 (00:00)
418 Jagged Alliance: Crossfire Aug 24, 2012 $14.9922% (64%/63%)100,000 .. 200,0000%00:00 (00:00)
419 Overruled! Sep 15, 2015 $12.99N/A (N/A)20,000 .. 50,0000%00:00 (00:00)
420 Disney Pirates of the Caribbean: At Worlds End Oct 6, 2014 $19.9921% (63%)0 .. 20,0000%00:00 (00:00)
421 A Game of Dwarves Oct 23, 2012 $9.9921% (63%/60%)50,000 .. 100,0000%00:00 (00:00)
422 Pixel Boy and the Ever Expanding Dungeon May 30, 2014 $0.9921% (63%)20,000 .. 50,0000%00:00 (00:00)
423 To End All Wars Aug 29, 2014 $39.9921% (63%/71%)0 .. 20,00011.11%01:17 (00:25)
424 Battle Worlds: Kronos Nov 4, 2013 $19.9921% (63%/71%)20,000 .. 50,0003.85%00:12 (00:04)
425 Beasts Battle Jun 15, 2016 $1.99N/A (N/A)20,000 .. 50,0000%00:00 (00:00)
426 Double Dragon IV Jan 30, 2017 $6.9921% (63%/50%)0 .. 20,0000%00:00 (00:00)
427 Sorcerer King: Rivals Sep 22, 2016 $19.9921% (63%)20,000 .. 50,0000%00:00 (00:00)
428 Malebolgia May 6, 2015 $12.9921% (63%)0 .. 20,0000%00:00 (00:00)
429 The Few Jun 18, 2014 $7.9921% (63%)20,000 .. 50,0000%00:00 (00:00)
430 Supreme Ruler: Cold War Jul 29, 2011 $9.9920% (62%/63%)20,000 .. 50,0000%00:00 (00:00)
431 Disney Epic Mickey 2: The Power of Two Nov 18, 2012 $19.9920% (62%)20,000 .. 50,0000%00:00 (00:00)
432 Freight Tycoon Inc. Apr 3, 2014 $4.9920% (62%)20,000 .. 50,0002.44%03:02 (01:00)
433 Goblin Defenders: Steel‘n’ Wood Nov 23, 2015 $2.99N/A (N/A)20,000 .. 50,0000%00:00 (00:00)
434 Hyperspace Pinball Sep 30, 2015 $2.99N/A (N/A)0 .. 20,0000%00:00 (00:00)
435 SPACECOM Sep 17, 2014 $9.9920% (62%/68%)100,000 .. 200,0000.9%01:03 (00:43)
436 4089: Ghost Within Jan 9, 2015 $5.9920% (62%)0 .. 20,0000%00:00 (00:00)
437 Spirit of War Mar 12, 2015 $9.99N/A (N/A)20,000 .. 50,0000%00:00 (00:00)
438 Desert Ashes Nov 10, 2014 $4.99N/A (N/A)20,000 .. 50,0000%00:00 (00:00)
439 NOBUNAGA'S AMBITION: Sphere of Influence - Ascension / 信長の野望・創造 戦国立志伝 Mar 23, 2016 $59.9919% (61%)100,000 .. 200,0000%00:00 (00:00)
440 Bombshell Jan 29, 2016 $34.9919% (61%/43%)20,000 .. 50,0003.92%08:46 (05:50)
441 Flashback Oct 1, 2013 $9.9919% (61%)20,000 .. 50,0000%00:00 (00:00)
442 Disciples III - Renaissance Steam Special Edition Jul 16, 2010 $14.9919% (61%/56%)100,000 .. 200,0000.48%00:01 (00:00)
443 Close Combat - Panthers in the Fog May 14, 2015 $39.9919% (61%)0 .. 20,0000%00:00 (00:00)
444 Spice Road Apr 24, 2014 $19.99N/A (N/A)0 .. 20,0000%00:00 (00:00)
445 War, the Game Jan 12, 2015 $6.9919% (61%/65%)20,000 .. 50,0000%00:00 (00:00)
446 Legions of Steel Jul 16, 2015 $19.99N/A (N/A/64%)0 .. 20,0000%00:00 (00:00)
447 Heavy Fire: Afghanistan Aug 15, 2014 $2.9917% (60%)20,000 .. 50,0000%00:00 (00:00)
448 BattleLore: Command Mar 31, 2015 $6.9917% (60%)0 .. 20,0000%00:00 (00:00)
449 Assault on Arnhem Mar 11, 2016 $9.99N/A (N/A)0 .. 20,0000%00:00 (00:00)
450 Woolfe - The Red Hood Diaries Mar 17, 2015 $9.9917% (60%/55%)50,000 .. 100,0000%00:00 (00:00)
451 Purgatory Jun 22, 2016 $0.4917% (60%)200,000 .. 500,0000%00:00 (00:00)
452 Defend Your Crypt Jul 21, 2016 $2.99N/A (N/A)0 .. 20,0007.14%301:11 (100:23)
453 Rise: Battle Lines Nov 17, 2015 $1.99N/A (N/A)0 .. 20,0000%00:00 (00:00)
454 Men of War: Vietnam Sep 8, 2011 $7.9917% (60%/68%)100,000 .. 200,0000%00:00 (00:00)
455 Will Fight for Food: Super Actual Sellout: Game of the Hour Apr 22, 2015 $4.99N/A (N/A)0 .. 20,0000%00:00 (00:00)
456 Merchants of Kaidan Nov 10, 2014 $14.9917% (60%)100,000 .. 200,0000%00:00 (00:00)
457 Hybrid Wars Sep 29, 2016 $6.9917% (60%/54%)0 .. 20,0000%00:00 (00:00)
458 Call of Duty: Black Ops - Mac Edition Sep 27, 2012 $19.9917% (60%)50,000 .. 100,0001.54%00:08 (00:02)
459 Ninjahtic Mind Tricks Jul 16, 2015 $1.99N/A (N/A)0 .. 20,0000%00:00 (00:00)
460 Wanderlust Adventures Aug 10, 2015 $9.9916% (59%)20,000 .. 50,0000%00:00 (00:00)
461 Patrician IV - Steam Special Edition Sep 17, 2010 $14.9916% (59%/66%)100,000 .. 200,0000%00:00 (00:00)
462 Check vs Mate Aug 16, 2012 $19.9916% (59%/69%)0 .. 20,0000%00:00 (00:00)
463 Colonial Conquest Jul 28, 2015 $9.9916% (59%)0 .. 20,0000%00:00 (00:00)
464 Skyshine's BEDLAM Sep 16, 2015 $19.9916% (59%/67%)20,000 .. 50,0000%00:00 (00:00)
465 Prospekt Feb 18, 2016 $9.9916% (59%)20,000 .. 50,0008%00:38 (00:18)
466 Antisquad May 22, 2014 $5.9916% (59%)50,000 .. 100,0000%00:00 (00:00)
467 Quarantine May 24, 2017 $9.9916% (59%)0 .. 20,0000%00:00 (00:00)
468 Armada 2526 Gold Edition Feb 28, 2013 $19.9916% (59%/66%)20,000 .. 50,0000%00:00 (00:00)
469 7 Grand Steps: What Ancients Begat Jun 7, 2013 $9.9916% (59%)100,000 .. 200,0000%00:00 (00:00)
470 E.T. Armies Mar 3, 2016 $14.9915% (58%/54%)0 .. 20,0000%00:00 (00:00)
471 Ceres Oct 16, 2015 $3.5915% (58%/74%)0 .. 20,0000%00:00 (00:00)
472 Sir! I'd Like To Report A Bug! Oct 19, 2015 $1.99N/A (N/A)0 .. 20,0000%00:00 (00:00)
473 Unearthed: Trail of Ibn Battuta - Episode 1 - Gold Edition Jan 3, 2014 $4.9915% (58%)20,000 .. 50,0000%00:00 (00:00)
474 Woodle Tree 2: Worlds Sep 16, 2016 $3.9915% (58%)50,000 .. 100,0000%00:00 (00:00)
475 Cemetery Warrior 3 Feb 3, 2017 $0.9915% (58%)50,000 .. 100,0000%00:00 (00:00)
476 Prophour23 Oct 22, 2014 $9.99N/A (N/A)0 .. 20,0000%00:00 (00:00)
477 Battleplan: American Civil War Jul 4, 2014 $9.9915% (58%/66%)100,000 .. 200,0000.88%03:46 (01:13)
478 Crazy Forest Jul 6, 2016 $4.99N/A (N/A)100,000 .. 200,0000%00:00 (00:00)
479 Life in Bunker Feb 25, 2016 $15.9914% (57%)0 .. 20,0000%00:00 (00:00)
480 Rise of Venice Sep 27, 2013 $19.9914% (57%/66%)50,000 .. 100,0000%00:00 (00:00)
481 Code of Princess Apr 14, 2016 $14.9914% (57%/53%)0 .. 20,0000%00:00 (00:00)
482 Horizon Feb 6, 2014 $7.4913% (56%/58%)50,000 .. 100,0000%00:00 (00:00)
483 Story Of the Survivor Feb 16, 2016 $4.99N/A (N/A)50,000 .. 100,0000%00:00 (00:00)
484 Delve Deeper Sep 24, 2010 $4.9913% (56%)50,000 .. 100,0000%00:00 (00:00)
485 Stay Dead Evolution Feb 4, 2015 $5.99N/A (N/A)20,000 .. 50,0000%00:00 (00:00)
486 Abalone Apr 23, 2014 $6.99N/A (N/A)20,000 .. 50,00013.79%04:29 (06:38)
487 DreamBreak Jul 21, 2016 $6.9913% (56%/46%)20,000 .. 50,0000%00:00 (00:00)
488 Super Helmets on Fire DX Ultra Edition Plus Alpha Feb 15, 2016 $0.99N/A (N/A)0 .. 20,0000%00:00 (00:00)
489 VR Journey Dec 15, 2016 $2.99N/A (N/A)20,000 .. 50,0000%00:00 (00:00)
490 Pain Train Jan 11, 2017 $0.4913% (55%)50,000 .. 100,0000.65%03:23 (01:07)
491 Adventure World Aug 2, 2016 $4.99N/A (N/A)0 .. 20,0000%00:00 (00:00)
492 BC Kings Sep 15, 2008 $4.9912% (54%)20,000 .. 50,0000%00:00 (00:00)
493 Meridian: Squad 22 Aug 11, 2016 $14.99N/A (N/A)0 .. 20,0000%00:00 (00:00)
494 Urja Jan 9, 2015 $9.9912% (54%)20,000 .. 50,0000%00:00 (00:00)
495 RESCUE 2: Everyday Heroes Jun 3, 2015 $19.9912% (54%)20,000 .. 50,00012.5%01:53 (00:37)
496 Tic-Toc-Tower Sep 28, 2015 $2.99N/A (N/A)0 .. 20,0000%00:00 (00:00)
497 Smugglers 5 Apr 11, 2014 $9.9911% (53%)20,000 .. 50,0000%00:00 (00:00)
498 Wickland Feb 6, 2015 $0.9911% (53%)50,000 .. 100,0000.51%00:58 (00:19)
499 Armada 2526 Jun 10, 2010 $14.99N/A (N/A/66%)0 .. 20,0000%00:00 (00:00)
500 MDK2 HD Jul 30, 2012 $14.9911% (53%/73%)0 .. 20,0000%00:00 (00:00)
501 The Stalin Subway Sep 19, 2014 $3.9911% (53%)20,000 .. 50,0000%00:00 (00:00)
502 Crusaders: Thy Kingdom Come Oct 8, 2009 $9.99N/A (N/A)0 .. 20,0000%00:00 (00:00)
503 Weather Lord: The Successor's Path May 7, 2015 $4.99N/A (N/A)0 .. 20,0000%00:00 (00:00)
504 Grim Seventh Jan 20, 2017 FreeN/A (N/A)0 .. 20,0000%00:00 (00:00)
505 Sovereignty: Crown of Kings Feb 2, 2017 $24.9911% (52%)0 .. 20,0000%00:00 (00:00)
506 MinosMaze - The Minotaur's Labyrinth May 1, 2017 $4.99N/A (N/A)0 .. 20,0000%00:00 (00:00)
507 Meridian: New World Apr 4, 2014 $6.9910% (51%/43%)100,000 .. 200,0000%00:00 (00:00)
508 Nightside Aug 6, 2015 $4.9910% (51%)20,000 .. 50,0000%00:00 (00:00)
509 Castle Werewolf 3D Feb 7, 2017 $2.9910% (51%)50,000 .. 100,0004.88%04:24 (04:34)
510 Aggression: Europe Under Fire Apr 9, 2014 $1.4910% (51%)50,000 .. 100,0000%00:00 (00:00)
511 Chronostorm: Siberian Border Nov 20, 2015 $0.62N/A (N/A)0 .. 20,0000%00:00 (00:00)
512 Biodrone Battle Jul 16, 2015 $1.9910% (51%)100,000 .. 200,0000.47%01:05 (00:21)
513 Dusty Revenge:Co-Op Edition Feb 17, 2014 $14.9910% (51%)50,000 .. 100,0000.68%01:36 (00:32)
514 Royal Bounty HD Aug 10, 2015 $2.9910% (51%)0 .. 20,0000%00:00 (00:00)
515 Rubber and Lead Sep 4, 2015 $4.99N/A (N/A)20,000 .. 50,0000%00:00 (00:00)
516 Guncraft Aug 9, 2013 $14.9910% (50%/73%)100,000 .. 200,0000%00:00 (00:00)
517 Megamagic: Wizards of the Neon Age Apr 20, 2016 $9.9910% (50%/67%)20,000 .. 50,0000%00:00 (00:00)
518 Aegis Oct 6, 2016 $2.99N/A (N/A)0 .. 20,0000%00:00 (00:00)
519 Scapeland Mar 31, 2016 $3.99N/A (N/A)0 .. 20,0000%00:00 (00:00)
520 Albedo: Eyes from Outer Space Apr 10, 2015 $14.999% (49%/66%)50,000 .. 100,0000%00:00 (00:00)
521 Kidnapped Aug 4, 2015 $2.999% (49%)100,000 .. 200,0000%00:00 (00:00)
522 Odd||Even Apr 6, 2016 $0.99N/A (N/A)20,000 .. 50,0000%00:00 (00:00)
523 Synonymy Mar 5, 2015 $1.99N/A (N/A)0 .. 20,0000%00:00 (00:00)
524 Marvel: Ultimate Alliance 2 Jul 26, 2016 N/A8% (48%)0 .. 20,0000%00:00 (00:00)
525 Star Traders: 4X Empires Dec 16, 2014 $9.99N/A (N/A)0 .. 20,0000%00:00 (00:00)
526 Disposable Heroes Mar 22, 2016 $4.99N/A (N/A)20,000 .. 50,0000%00:00 (00:00)
527 Island Defense Jul 23, 2015 $1.99N/A (N/A)50,000 .. 100,0000%00:00 (00:00)
528 Hell Nov 13, 2014 $29.99N/A (N/A)0 .. 20,0000%00:00 (00:00)
529 Blasting Agent: Ultimate Edition Aug 17, 2016 $2.99N/A (N/A)0 .. 20,0000%00:00 (00:00)
530 Hero Generations Apr 10, 2015 $5.998% (47%)0 .. 20,0000%00:00 (00:00)
531 Magic Quest May 6, 2016 $1.99N/A (N/A)50,000 .. 100,0000%00:00 (00:00)
532 Crossfire: Dungeons May 21, 2015 $3.997% (46%)0 .. 20,0000%00:00 (00:00)
533 Z Steel Soldiers Aug 1, 2014 $12.997% (46%)50,000 .. 100,0000.45%00:02 (00:00)
534 PeriAreion Feb 19, 2015 $5.99N/A (N/A)0 .. 20,0000%00:00 (00:00)
535 Defence to death May 11, 2017 $1.99N/A (N/A)100,000 .. 200,0000.3%09:47 (03:15)
536 Carrier Command: Gaea Mission Sep 28, 2012 $32.997% (46%/60%)200,000 .. 500,0000%00:00 (00:00)
537 The Stalin Subway: Red Veil Oct 24, 2014 $2.997% (46%)50,000 .. 100,0000%00:00 (00:00)
538 Pride of Nations Jun 8, 2011 $19.997% (46%/70%)20,000 .. 50,0000%00:00 (00:00)
539 No Pineapple Left Behind Feb 18, 2016 $6.99N/A (N/A/59%)0 .. 20,0000%00:00 (00:00)
540 HitBox Jan 30, 2017 Free7% (46%)0 .. 20,0000%00:00 (00:00)
541 World War 2: Time of Wrath Jun 6, 2014 $0.99N/A (N/A)20,000 .. 50,0000%00:00 (00:00)
542 ALONE IN SPACE Feb 22, 2016 $9.997% (45%)0 .. 20,0000%00:00 (00:00)
543 The Campaign Series: Fall Weiss May 30, 2014 $2.99N/A (N/A)20,000 .. 50,0000%00:00 (00:00)
544 Impire Feb 14, 2013 $19.997% (45%/45%)100,000 .. 200,0000%00:00 (00:00)
545 Redemption: Saints And Sinners Nov 18, 2016 $0.997% (45%)50,000 .. 100,0000.66%00:34 (00:22)
546 Skyward Collapse May 23, 2013 $4.997% (45%/64%)100,000 .. 200,0000%00:00 (00:00)
547 Commander: Conquest of the Americas Jul 30, 2010 $9.997% (44%/68%)50,000 .. 100,0000%00:00 (00:00)
548 Battle Chess: Game of Kings Dec 11, 2015 $29.997% (44%)0 .. 20,0000%00:00 (00:00)
549 The Bluecoats: North vs South Feb 2, 2015 $4.997% (44%)50,000 .. 100,0000%00:00 (00:00)
550 Vendetta - Curse of Raven's Cry Nov 20, 2015 $29.996% (43%)0 .. 20,0000%00:00 (00:00)
551 Dungeons Feb 10, 2011 $9.996% (43%/65%)200,000 .. 500,0000%00:00 (00:00)
552 The Entente Gold Jun 16, 2014 $1.996% (43%)50,000 .. 100,0002.3%00:46 (00:30)
553 Samudai Feb 9, 2015 $2.99N/A (N/A)20,000 .. 50,0000%00:00 (00:00)
554 Rulers of Nations Jul 16, 2014 $19.996% (42%/63%)0 .. 20,0000%00:00 (00:00)
555 Nux Aug 15, 2014 $6.99N/A (N/A)100,000 .. 200,0000.36%04:39 (03:06)
556 Sword of the Stars II: Enhanced Edition Nov 30, 2012 $19.996% (42%/65%)100,000 .. 200,0000%00:00 (00:00)
557 Devils & Demons Oct 6, 2015 $9.99N/A (N/A)20,000 .. 50,0000%00:00 (00:00)
558 Burstfire Sep 24, 2015 N/A5% (41%)50,000 .. 100,0000%00:00 (00:00)
559 Hydraulic Empire Jul 31, 2015 $7.99N/A (N/A)0 .. 20,0000%00:00 (00:00)
560 Mechs & Mercs: Black Talons Jan 9, 2015 $9.995% (40%)0 .. 20,0000%00:00 (00:00)
561 Risk Jun 10, 2013 $9.995% (40%)20,000 .. 50,0000%00:00 (00:00)
562 Pain Train 2 Mar 16, 2017 $6.995% (40%)20,000 .. 50,0000%00:00 (00:00)
563 Knight Adventure Oct 15, 2015 $0.99N/A (N/A)50,000 .. 100,0000%00:00 (00:00)
564 Strategic War in Europe Mar 21, 2014 $14.995% (39%)20,000 .. 50,0000%00:00 (00:00)
565 Gratuitous Space Battles 2 Apr 16, 2015 $9.995% (39%)20,000 .. 50,0000%00:00 (00:00)
566 Dark Matter Oct 17, 2013 $9.995% (39%)0 .. 20,0000%00:00 (00:00)
567 Wave of Darkness Nov 5, 2015 $29.99N/A (N/A)0 .. 20,0000%00:00 (00:00)
568 Dungeons - The Dark Lord Sep 27, 2011 $19.994% (38%/72%)100,000 .. 200,0000%00:00 (00:00)
569 Tiamat X May 29, 2015 $1.99N/A (N/A)50,000 .. 100,0000%00:00 (00:00)
570 Dead But Alive! Southern England Oct 2, 2015 $14.99N/A (N/A)0 .. 20,0000%00:00 (00:00)
571 Lost in Paradise Aug 20, 2015 $2.99N/A (N/A)20,000 .. 50,0000%00:00 (00:00)
572 Heavy Fire: Shattered Spear Oct 23, 2015 $3.99N/A (N/A)0 .. 20,0000%00:00 (00:00)
573 The Kings' Crusade Oct 8, 2010 $9.994% (38%/71%)50,000 .. 100,0000%00:00 (00:00)
574 Infection: Humanity's Last Gasp May 26, 2016 $9.99N/A (N/A)0 .. 20,0002.13%03:31 (01:10)
575 Zombie Apocalypse: Escape The Undead City Jun 17, 2016 $0.99N/A (N/A)0 .. 20,0000%00:00 (00:00)
576 Control Craft 2 Feb 15, 2016 $2.99N/A (N/A)0 .. 20,0000%00:00 (00:00)
577 Stellar Impact Apr 12, 2012 $9.994% (37%/74%)50,000 .. 100,0000.71%05:21 (01:47)
578 Shadows of War Jan 2, 2015 $2.994% (36%)20,000 .. 50,0000%00:00 (00:00)
579 Urban Empire Jan 20, 2017 $29.993% (35%/62%)50,000 .. 100,0000%00:00 (00:00)
580 Sim Junta Aug 18, 2015 $0.493% (35%)0 .. 20,0000%00:00 (00:00)
581 Blue Sheep Mar 31, 2016 $1.99N/A (N/A)0 .. 20,0000%00:00 (00:00)
582 Disciples III - Resurrection Oct 11, 2011 $14.993% (34%/63%)100,000 .. 200,0000%00:00 (00:00)
583 CTU: Counter Terrorism Unit Apr 22, 2016 $4.99N/A (N/A)0 .. 20,0000%00:00 (00:00)
584 Into the Void Dec 4, 2015 $4.99N/A (N/A)20,000 .. 50,0000%00:00 (00:00)
585 Ranger of the jungle Jul 18, 2016 $3.99N/A (N/A)0 .. 20,0000%00:00 (00:00)
586 Fallen: A2P Protocol Aug 14, 2015 $9.993% (33%)20,000 .. 50,0000%00:00 (00:00)
587 Jagged Alliance Flashback Oct 21, 2014 $19.993% (33%)20,000 .. 50,0000%00:00 (00:00)
588 Arma Tactics Oct 1, 2013 $8.993% (33%/47%)200,000 .. 500,0000.21%00:01 (00:00)
589 Kick-Ass 2 Aug 15, 2014 $19.993% (32%)20,000 .. 50,0000%00:00 (00:00)
590 Evopollution Apr 23, 2014 $4.992% (31%)0 .. 20,0000%00:00 (00:00)
591 A Game of Thrones - Genesis Sep 29, 2011 $9.992% (31%)100,000 .. 200,0000%00:00 (00:00)
592 Zombies on a Plane Mar 25, 2016 $4.99N/A (N/A)20,000 .. 50,0000%00:00 (00:00)
593 Psichodelya Aug 8, 2014 $1.99N/A (N/A)100,000 .. 200,0000%00:00 (00:00)
594 Zombie Zoeds May 20, 2015 $0.992% (30%)200,000 .. 500,0000.17%01:31 (00:30)
595 Power of Defense Aug 4, 2010 $9.99N/A (N/A)0 .. 20,0000%00:00 (00:00)
596 Robotex Nov 19, 2014 $0.992% (30%)100,000 .. 200,0000%00:00 (00:00)
597 Ku: Shroud of the Morrigan Mar 17, 2014 $4.99N/A (N/A)20,000 .. 50,0000%00:00 (00:00)
598 Ground Pounders Jul 15, 2014 $4.99N/A (N/A)0 .. 20,0000%00:00 (00:00)
599 Defenders of Time Nov 4, 2014 N/AN/A (N/A/55%)0 .. 20,0000%00:00 (00:00)
600 Tank Operations: European Campaign Nov 22, 2013 $19.992% (29%)20,000 .. 50,0000%00:00 (00:00)
601 Hard Truck Apocalypse: Arcade / Ex Machina: Arcade Mar 14, 2014 $4.992% (27%)20,000 .. 50,0000%00:00 (00:00)
602 Solar Shifter EX Sep 11, 2015 $4.99N/A (N/A)20,000 .. 50,0000%00:00 (00:00)
603 Gridberd Sep 7, 2015 $6.99N/A (N/A)200,000 .. 500,0000.16%02:21 (00:47)
604 One Star Apr 17, 2017 $0.51% (24%)100,000 .. 200,0006.25%03:56 (04:29)
605 Elite vs. Freedom May 31, 2016 $4.991% (23%)0 .. 20,0000%00:00 (00:00)
606 APOX Jan 20, 2011 $14.991% (23%/48%)20,000 .. 50,0000%00:00 (00:00)
607 The Asskickers-Steam Edition Feb 6, 2015 $9.99N/A (N/A)0 .. 20,0000%00:00 (00:00)
608 Gemini Wars Nov 2, 2012 $14.991% (20%/53%)20,000 .. 50,0000%00:00 (00:00)
609 Lords of the Black Sun Sep 12, 2014 $5.391% (20%)20,000 .. 50,0000%00:00 (00:00)
610 Star Project Aug 4, 2016 $0.49N/A (N/A)100,000 .. 200,0000%00:00 (00:00)
611 Human Extinction Simulator Jan 21, 2015 $19.99N/A (N/A)0 .. 20,0000%00:00 (00:00)
612 Prison Tycoon 3: Lockdown Aug 1, 2007 $9.991% (17%)20,000 .. 50,0000%00:00 (00:00)
613 Tryst Sep 14, 2012 $14.99N/A (N/A/50%)0 .. 20,0000%00:00 (00:00)
614 Once Bitten, Twice Dead! Jul 7, 2015 $4.99N/A (N/A)20,000 .. 50,0000%00:00 (00:00)
615 Citadels Jul 25, 2013 $14.991% (13%/20%)20,000 .. 50,0000%00:00 (00:00)
616 Bloodbath Jun 16, 2014 $14.99N/A (N/A)0 .. 20,0000%00:00 (00:00)
617 Magnetic By Nature Nov 10, 2014 $9.99N/A (N/A)20,000 .. 50,0000%00:00 (00:00)

Tags over time:

Access restricted.

This feature is only available to users with special access rights. Sorry.

If you want to proceed, you need to register or log in first and then back Steam Spy on Patreon. Look for Indie or Pro pledge.

Don't forget to use the same email as on Steam Spy!

Owners of this game also own:

Access restricted.

This feature is only available to users with special access rights. Sorry.

If you want to proceed, you need to register or log in first and then back Steam Spy on Patreon. Look for Indie or Pro pledge.

Don't forget to use the same email as on Steam Spy!

Playtime distribution:

Access restricted.

This feature is only available to users with special access rights. Sorry.

If you want to proceed, you need to register or log in first and then back Steam Spy on Patreon. Look for Indie or Pro pledge.

Don't forget to use the same email as on Steam Spy!

Playtime (2 weeks):

Access restricted.

This feature is only available to users with special access rights. Sorry.

If you want to proceed, you need to register or log in first and then back Steam Spy on Patreon. Look for Indie or Pro pledge.

Don't forget to use the same email as on Steam Spy!

User reviews:

Login required.

Please register or log in to see this information.